Precipitable_Water
0.36 0.37 0.38 0.38 0.39 0.39 0.39 0.37 0.36 0.35 0.34 0.34 0.33 0.32 0.31 0.30 0.29 0.29 0.28 0.27 0.26 0.25 0.24 0.24 0.23 0.23 0.23 0.22 0.22 0.22 0.22 0.22 0.22 0.22 0.21 0.21 0.21 0.21 0.20 0.20 0.20 0.20 0.20 0.20 0.20 0.20 0.20 0.20 0.20 0.20 0.21 0.21 0.21 0.21 0.21 0.21 0.21 0.21 0.21 0.21 0.20 0.20 0.19 0.19 0.17 0.17 0.19 0.19 0.19 0.18 0.18 0.18 0.17 0.16 0.15 0.15 0.15 0.15 0.15 0.15 0.15 0.14 0.14 0.14 0.14
0.36 0.37 0.38 0.38 0.39 0.39 0.39 0.37 0.36 0.35 0.34 0.34 0.33 0.33 0.32 0.31 0.29 0.29 0.27 0.27 0.26 0.25 0.25 0.24 0.23 0.23 0.23 0.22 0.22 0.22 0.22 0.22 0.22 0.21 0.21 0.21 0.20 0.20 0.20 0.20 0.20 0.20 0.20 0.20 0.20 0.20 0.20 0.20 0.20 0.20 0.20 0.20 0.20 0.20 0.20 0.20 0.20 0.20 0.20 0.20 0.19 0.19 0.19 0.18 0.17 0.17 0.16 0.18 0.18 0.18 0.17 0.16 0.15 0.15 0.15 0.14 0.14 0.14 0.14 0.14 0.14 0.14 0.14 0.14 0.13
0.36 0.37 0.37 0.37 0.38 0.39 0.39 0.37 0.36 0.35 0.34 0.34 0.33 0.33 0.32 0.31 0.29 0.28 0.27 0.26 0.26 0.25 0.25 0.24 0.24 0.23 0.23 0.22 0.22 0.22 0.22 0.21 0.21 0.21 0.21 0.20 0.20 0.20 0.20 0.20 0.20 0.20 0.19 0.19 0.20 0.20 0.20 0.19 0.19 0.20 0.20 0.19 0.19 0.20 0.20 0.20 0.20 0.19 0.19 0.19 0.19 0.19 0.19 0.19 0.18 0.16 0.16 0.16 0.17 0.15 0.15 0.15 0.14 0.14 0.14 0.14 0.14 0.14 0.14 0.13 0.13 0.14 0.14 0.14 0.13
0.36 0.37 0.36 0.37 0.38 0.39 0.39 0.38 0.36 0.35 0.34 0.33 0.33 0.32 0.32 0.31 0.29 0.27 0.27 0.26 0.25 0.25 0.24 0.24 0.23 0.23 0.22 0.22 0.22 0.21 0.21 0.21 0.21 0.21 0.21 0.20 0.20 0.20 0.20 0.20 0.20 0.20 0.19 0.19 0.19 0.19 0.19 0.19 0.19 0.19 0.19 0.19 0.19 0.19 0.19 0.19 0.19 0.19 0.19 0.19 0.18 0.18 0.17 0.17 0.17 0.16 0.16 0.15 0.15 0.15 0.14 0.14 0.14 0.14 0.14 0.13 0.13 0.13 0.13 0.13 0.13 0.13 0.13 0.13 0.13
0.35 0.36 0.36 0.36 0.38 0.39 0.39 0.38 0.37 0.36 0.34 0.33 0.32 0.32 0.32 0.30 0.28 0.27 0.25 0.24 0.24 0.24 0.23 0.23 0.23 0.22 0.21 0.21 0.21 0.21 0.21 0.21 0.21 0.20 0.20 0.21 0.20 0.20 0.20 0.20 0.20 0.20 0.20 0.20 0.20 0.20 0.19 0.19 0.19 0.19 0.19 0.19 0.19 0.19 0.19 0.19 0.19 0.18 0.18 0.18 0.18 0.17 0.17 0.16 0.16 0.16 0.15 0.14 0.14 0.14 0.14 0.14 0.13 0.13 0.13 0.13 0.12 0.13 0.12 0.12 0.12 0.12 0.12 0.12 0.12
0.36 0.36 0.36 0.36 0.37 0.39 0.39 0.39 0.38 0.36 0.34 0.33 0.32 0.31 0.31 0.29 0.27 0.26 0.24 0.23 0.23 0.23 0.22 0.22 0.22 0.21 0.21 0.21 0.21 0.21 0.21 0.21 0.20 0.20 0.20 0.20 0.20 0.20 0.20 0.20 0.20 0.20 0.20 0.20 0.20 0.20 0.20 0.20 0.20 0.19 0.19 0.19 0.19 0.19 0.19 0.19 0.18 0.18 0.17 0.17 0.17 0.17 0.17 0.16 0.16 0.16 0.15 0.14 0.14 0.14 0.13 0.13 0.13 0.12 0.13 0.12 0.12 0.12 0.11 0.11 0.11 0.11 0.11 0.11 0.11
0.37 0.37 0.36 0.36 0.37 0.39 0.41 0.41 0.39 0.36 0.34 0.33 0.32 0.31 0.30 0.28 0.26 0.25 0.24 0.23 0.22 0.22 0.22 0.21 0.21 0.21 0.21 0.21 0.21 0.21 0.20 0.20 0.20 0.20 0.20 0.20 0.20 0.20 0.20 0.20 0.20 0.20 0.20 0.20 0.20 0.20 0.20 0.20 0.20 0.20 0.20 0.19 0.19 0.19 0.18 0.18 0.18 0.17 0.17 0.17 0.17 0.17 0.16 0.16 0.16 0.15 0.15 0.14 0.14 0.13 0.13 0.13 0.13 0.12 0.12 0.12 0.11 0.12 0.11 0.11 0.10 0.10 0.11 0.11 0.11
0.39 0.38 0.37 0.37 0.38 0.41 0.42 0.41 0.39 0.37 0.35 0.33 0.32 0.31 0.29 0.27 0.26 0.24 0.23 0.22 0.22 0.21 0.21 0.21 0.21 0.21 0.21 0.21 0.21 0.21 0.21 0.20 0.20 0.20 0.20 0.20 0.20 0.20 0.20 0.20 0.20 0.20 0.20 0.21 0.21 0.21 0.21 0.20 0.20 0.20 0.20 0.20 0.20 0.19 0.19 0.18 0.17 0.17 0.17 0.17 0.16 0.16 0.16 0.15 0.15 0.15 0.14 0.14 0.13 0.12 0.12 0.12 0.12 0.12 0.12 0.11 0.10 0.10 0.10 0.10 0.10 0.10 0.10 0.10 0.10
0.38 0.40 0.40 0.39 0.40 0.41 0.41 0.41 0.39 0.38 0.35 0.34 0.32 0.30 0.28 0.27 0.25 0.24 0.23 0.22 0.22 0.22 0.21 0.21 0.21 0.21 0.21 0.21 0.21 0.21 0.21 0.21 0.21 0.21 0.21 0.21 0.21 0.21 0.21 0.21 0.21 0.21 0.21 0.21 0.21 0.21 0.20 0.20 0.20 0.20 0.20 0.20 0.20 0.19 0.19 0.18 0.17 0.17 0.17 0.16 0.16 0.15 0.15 0.15 0.14 0.14 0.13 0.13 0.12 0.12 0.11 0.11 0.11 0.11 0.11 0.10 0.10 0.10 0.10 0.10 0.10 0.10 0.10 0.10 0.10
0.36 0.38 0.39 0.40 0.41 0.41 0.41 0.40 0.39 0.37 0.35 0.33 0.32 0.29 0.28 0.26 0.25 0.24 0.23 0.22 0.22 0.22 0.22 0.22 0.22 0.22 0.22 0.22 0.22 0.22 0.22 0.22 0.22 0.22 0.23 0.22 0.22 0.22 0.22 0.22 0.22 0.21 0.21 0.21 0.20 0.20 0.20 0.20 0.20 0.20 0.19 0.19 0.19 0.19 0.18 0.18 0.18 0.17 0.17 0.16 0.16 0.15 0.14 0.14 0.13 0.13 0.13 0.12 0.12 0.11 0.11 0.10 0.10 0.11 0.10 0.10 0.10 0.10 0.10 0.10 0.09 0.09 0.09 0.09 0.09
0.35 0.36 0.37 0.39 0.40 0.41 0.40 0.39 0.38 0.36 0.35 0.34 0.31 0.29 0.28 0.26 0.25 0.24 0.23 0.23 0.23 0.23 0.23 0.23 0.22 0.22 0.22 0.22 0.22 0.22 0.22 0.22 0.23 0.23 0.23 0.23 0.22 0.21 0.21 0.21 0.21 0.21 0.20 0.20 0.19 0.19 0.19 0.19 0.19 0.19 0.18 0.18 0.18 0.18 0.18 0.17 0.17 0.17 0.17 0.16 0.16 0.15 0.14 0.13 0.13 0.12 0.12 0.11 0.11 0.11 0.10 0.10 0.10 0.10 0.10 0.10 0.10 0.10 0.10 0.10 0.09 0.09 0.09 0.09 0.09
0.35 0.36 0.37 0.38 0.39 0.39 0.38 0.37 0.36 0.35 0.35 0.34 0.31 0.29 0.28 0.27 0.26 0.25 0.24 0.24 0.24 0.24 0.23 0.23 0.23 0.23 0.22 0.22 0.22 0.21 0.21 0.22 0.22 0.22 0.23 0.22 0.21 0.20 0.20 0.20 0.20 0.20 0.19 0.19 0.19 0.19 0.19 0.18 0.18 0.18 0.18 0.18 0.17 0.17 0.16 0.16 0.16 0.16 0.15 0.15 0.15 0.15 0.15 0.14 0.13 0.12 0.11 0.11 0.11 0.10 0.10 0.10 0.10 0.10 0.10 0.10 0.10 0.10 0.09 0.09 0.09 0.09 0.09 0.09 0.09
0.35 0.36 0.37 0.37 0.38 0.38 0.37 0.35 0.35 0.36 0.35 0.33 0.31 0.29 0.28 0.27 0.26 0.25 0.24 0.24 0.24 0.23 0.23 0.23 0.23 0.23 0.22 0.21 0.21 0.21 0.21 0.21 0.22 0.22 0.22 0.22 0.21 0.20 0.19 0.19 0.19 0.19 0.19 0.18 0.18 0.18 0.18 0.18 0.17 0.17 0.17 0.17 0.16 0.16 0.16 0.16 0.16 0.15 0.15 0.14 0.14 0.14 0.14 0.14 0.14 0.13 0.12 0.11 0.11 0.10 0.10 0.10 0.10 0.10 0.10 0.10 0.10 0.10 0.09 0.09 0.09 0.09 0.09 0.09 0.09
0.35 0.36 0.37 0.37 0.37 0.36 0.35 0.36 0.36 0.35 0.34 0.32 0.31 0.29 0.28 0.27 0.26 0.26 0.25 0.25 0.24 0.24 0.23 0.23 0.22 0.22 0.21 0.21 0.20 0.20 0.20 0.20 0.21 0.21 0.21 0.21 0.21 0.20 0.19 0.18 0.18 0.18 0.18 0.17 0.17 0.17 0.17 0.17 0.16 0.16 0.16 0.16 0.16 0.15 0.15 0.15 0.15 0.15 0.15 0.14 0.14 0.13 0.13 0.13 0.13 0.13 0.12 0.12 0.11 0.10 0.11 0.11 0.10 0.10 0.11 0.11 0.10 0.10 0.09 0.09 0.09 0.09 0.09 0.09 0.09
0.35 0.35 0.36 0.37 0.36 0.35 0.36 0.36 0.35 0.34 0.33 0.32 0.30 0.29 0.28 0.28 0.27 0.26 0.26 0.25 0.24 0.23 0.23 0.22 0.22 0.22 0.21 0.21 0.20 0.20 0.20 0.20 0.20 0.21 0.21 0.21 0.20 0.19 0.17 0.17 0.17 0.17 0.17 0.17 0.16 0.16 0.16 0.16 0.16 0.15 0.15 0.15 0.15 0.15 0.15 0.15 0.15 0.14 0.14 0.14 0.14 0.13 0.13 0.12 0.12 0.12 0.12 0.12 0.11 0.11 0.11 0.11 0.11 0.11 0.11 0.11 0.11 0.11 0.10 0.10 0.10 0.09 0.09 0.10 0.09
0.35 0.35 0.35 0.35 0.35 0.35 0.35 0.35 0.34 0.33 0.32 0.31 0.30 0.29 0.28 0.28 0.27 0.27 0.26 0.25 0.25 0.24 0.23 0.23 0.22 0.21 0.21 0.21 0.20 0.19 0.19 0.20 0.20 0.20 0.20 0.20 0.19 0.17 0.17 0.16 0.16 0.16 0.16 0.16 0.16 0.16 0.15 0.15 0.15 0.15 0.15 0.15 0.15 0.15 0.15 0.15 0.15 0.14 0.14 0.14 0.13 0.13 0.13 0.13 0.13 0.13 0.12 0.12 0.12 0.12 0.12 0.12 0.12 0.13 0.12 0.12 0.12 0.11 0.11 0.10 0.09 0.09 0.09 0.09 0.09
0.33 0.34 0.34 0.34 0.34 0.35 0.35 0.34 0.33 0.32 0.32 0.31 0.30 0.29 0.28 0.28 0.27 0.27 0.26 0.25 0.24 0.24 0.23 0.22 0.22 0.22 0.21 0.21 0.20 0.19 0.19 0.19 0.20 0.19 0.19 0.19 0.18 0.17 0.16 0.16 0.15 0.15 0.15 0.15 0.15 0.15 0.15 0.15 0.15 0.15 0.15 0.14 0.15 0.15 0.15 0.15 0.15 0.14 0.14 0.13 0.13 0.13 0.13 0.13 0.13 0.12 0.12 0.12 0.12 0.12 0.12 0.12 0.12 0.12 0.12 0.12 0.12 0.11 0.10 0.09 0.09 0.09 0.08 0.08 0.08
0.33 0.33 0.32 0.33 0.34 0.34 0.34 0.34 0.33 0.33 0.32 0.30 0.30 0.29 0.29 0.28 0.27 0.27 0.26 0.25 0.24 0.24 0.23 0.23 0.22 0.22 0.21 0.21 0.20 0.20 0.19 0.19 0.19 0.19 0.19 0.19 0.18 0.17 0.16 0.16 0.15 0.15 0.15 0.15 0.15 0.15 0.15 0.15 0.14 0.14 0.14 0.14 0.14 0.14 0.14 0.15 0.15 0.14 0.14 0.13 0.12 0.12 0.12 0.13 0.12 0.12 0.12 0.11 0.11 0.11 0.11 0.11 0.11 0.11 0.11 0.11 0.11 0.11 0.10 0.09 0.09 0.09 0.08 0.08 0.08
0.32 0.32 0.32 0.33 0.34 0.34 0.34 0.34 0.33 0.32 0.31 0.31 0.30 0.30 0.28 0.27 0.27 0.27 0.26 0.26 0.25 0.25 0.24 0.23 0.22 0.22 0.22 0.21 0.21 0.20 0.19 0.19 0.19 0.19 0.19 0.19 0.17 0.17 0.16 0.15 0.15 0.15 0.15 0.14 0.14 0.14 0.14 0.14 0.14 0.14 0.14 0.13 0.13 0.13 0.14 0.15 0.14 0.14 0.13 0.12 0.12 0.12 0.12 0.13 0.12 0.12 0.11 0.11 0.11 0.11 0.11 0.11 0.11 0.11 0.10 0.11 0.11 0.11 0.10 0.10 0.09 0.09 0.08 0.08 0.08
0.32 0.32 0.32 0.33 0.33 0.33 0.33 0.33 0.33 0.33 0.32 0.31 0.31 0.30 0.29 0.28 0.27 0.27 0.27 0.27 0.26 0.25 0.24 0.23 0.22 0.22 0.22 0.22 0.21 0.20 0.20 0.19 0.19 0.18 0.19 0.18 0.17 0.16 0.16 0.15 0.14 0.14 0.14 0.14 0.14 0.14 0.14 0.14 0.14 0.14 0.14 0.13 0.13 0.14 0.15 0.15 0.14 0.13 0.13 0.12 0.12 0.12 0.13 0.13 0.12 0.12 0.11 0.11 0.11 0.11 0.11 0.11 0.11 0.11 0.11 0.10 0.11 0.11 0.10 0.10 0.09 0.09 0.08 0.08 0.08
0.31 0.31 0.32 0.32 0.32 0.33 0.33 0.33 0.33 0.33 0.33 0.32 0.32 0.31 0.30 0.29 0.28 0.28 0.27 0.27 0.26 0.25 0.24 0.23 0.23 0.22 0.21 0.21 0.21 0.20 0.20 0.19 0.19 0.19 0.19 0.18 0.17 0.16 0.15 0.15 0.15 0.14 0.14 0.13 0.13 0.13 0.14 0.14 0.14 0.13 0.13 0.13 0.13 0.14 0.15 0.15 0.14 0.13 0.13 0.13 0.13 0.13 0.14 0.12 0.12 0.12 0.11 0.11 0.11 0.11 0.11 0.11 0.11 0.11 0.11 0.10 0.10 0.10 0.10 0.10 0.09 0.09 0.09 0.08 0.07
0.31 0.31 0.31 0.31 0.32 0.33 0.33 0.33 0.33 0.33 0.33 0.32 0.32 0.31 0.31 0.30 0.30 0.29 0.28 0.27 0.26 0.25 0.24 0.24 0.23 0.22 0.21 0.21 0.21 0.20 0.20 0.19 0.19 0.19 0.18 0.18 0.17 0.17 0.16 0.15 0.15 0.14 0.13 0.13 0.13 0.13 0.13 0.13 0.13 0.13 0.13 0.12 0.13 0.15 0.15 0.15 0.14 0.14 0.13 0.14 0.14 0.13 0.13 0.12 0.12 0.12 0.11 0.11 0.11 0.11 0.11 0.11 0.11 0.11 0.10 0.10 0.10 0.10 0.10 0.10 0.09 0.09 0.09 0.08 0.08
0.31 0.31 0.31 0.31 0.31 0.32 0.32 0.33 0.33 0.32 0.32 0.32 0.32 0.31 0.30 0.30 0.30 0.30 0.28 0.27 0.26 0.25 0.24 0.24 0.22 0.21 0.21 0.21 0.20 0.20 0.19 0.19 0.19 0.18 0.18 0.18 0.17 0.17 0.16 0.15 0.15 0.14 0.14 0.13 0.13 0.13 0.13 0.13 0.13 0.13 0.13 0.13 0.13 0.15 0.15 0.14 0.14 0.14 0.14 0.14 0.13 0.13 0.13 0.12 0.12 0.12 0.12 0.11 0.11 0.11 0.11 0.11 0.11 0.11 0.10 0.10 0.10 0.10 0.10 0.09 0.09 0.09 0.08 0.08 0.08
0.30 0.30 0.30 0.30 0.31 0.31 0.32 0.32 0.32 0.32 0.32 0.32 0.31 0.31 0.30 0.30 0.30 0.29 0.28 0.27 0.26 0.25 0.24 0.23 0.22 0.21 0.20 0.20 0.20 0.20 0.19 0.19 0.18 0.18 0.18 0.18 0.17 0.17 0.17 0.16 0.15 0.14 0.14 0.13 0.13 0.13 0.13 0.13 0.13 0.13 0.13 0.13 0.13 0.14 0.14 0.14 0.13 0.13 0.13 0.13 0.13 0.13 0.12 0.12 0.12 0.12 0.12 0.11 0.11 0.11 0.11 0.11 0.11 0.11 0.10 0.10 0.10 0.10 0.09 0.09 0.09 0.08 0.08 0.08 0.08
0.30 0.30 0.30 0.30 0.30 0.31 0.31 0.31 0.31 0.31 0.31 0.31 0.30 0.30 0.30 0.30 0.29 0.28 0.27 0.26 0.25 0.25 0.24 0.23 0.22 0.21 0.20 0.20 0.19 0.19 0.19 0.19 0.18 0.18 0.18 0.18 0.17 0.17 0.17 0.16 0.16 0.15 0.14 0.13 0.13 0.13 0.13 0.13 0.13 0.13 0.13 0.13 0.13 0.13 0.13 0.13 0.13 0.13 0.13 0.13 0.13 0.12 0.12 0.12 0.12 0.12 0.12 0.11 0.11 0.11 0.11 0.11 0.11 0.11 0.11 0.10 0.10 0.10 0.09 0.09 0.09 0.08 0.08 0.08 0.08
0.29 0.29 0.29 0.30 0.30 0.30 0.30 0.30 0.31 0.31 0.31 0.31 0.30 0.30 0.29 0.29 0.28 0.27 0.27 0.26 0.25 0.24 0.24 0.23 0.22 0.21 0.20 0.19 0.19 0.19 0.18 0.18 0.18 0.18 0.18 0.18 0.17 0.17 0.16 0.16 0.16 0.15 0.14 0.14 0.14 0.13 0.13 0.13 0.13 0.13 0.13 0.13 0.13 0.12 0.12 0.12 0.12 0.13 0.12 0.12 0.12 0.12 0.12 0.12 0.12 0.12 0.12 0.11 0.11 0.11 0.11 0.11 0.11 0.11 0.10 0.10 0.10 0.09 0.09 0.08 0.08 0.08 0.07 0.07 0.07
0.29 0.29 0.29 0.30 0.30 0.30 0.30 0.30 0.30 0.30 0.30 0.30 0.30 0.29 0.29 0.28 0.27 0.27 0.26 0.25 0.24 0.24 0.23 0.22 0.21 0.21 0.20 0.19 0.19 0.18 0.18 0.17 0.17 0.17 0.18 0.17 0.17 0.17 0.16 0.16 0.16 0.15 0.15 0.14 0.14 0.14 0.13 0.13 0.13 0.13 0.13 0.13 0.13 0.13 0.12 0.13 0.12 0.12 0.12 0.13 0.13 0.13 0.13 0.13 0.12 0.12 0.12 0.12 0.11 0.11 0.11 0.11 0.11 0.11 0.10 0.10 0.09 0.09 0.09 0.08 0.08 0.07 0.07 0.07 0.06
0.29 0.29 0.29 0.29 0.29 0.29 0.29 0.29 0.29 0.29 0.29 0.29 0.28 0.28 0.28 0.28 0.27 0.26 0.25 0.25 0.24 0.23 0.23 0.22 0.21 0.20 0.20 0.19 0.19 0.18 0.17 0.17 0.17 0.17 0.17 0.17 0.17 0.16 0.16 0.16 0.15 0.15 0.15 0.14 0.14 0.14 0.14 0.14 0.14 0.13 0.13 0.12 0.12 0.13 0.13 0.13 0.13 0.13 0.13 0.13 0.13 0.13 0.13 0.13 0.13 0.12 0.12 0.12 0.12 0.12 0.11 0.11 0.10 0.10 0.10 0.09 0.09 0.08 0.08 0.08 0.07 0.07 0.07 0.06 0.06
0.28 0.29 0.29 0.29 0.29 0.29 0.29 0.29 0.28 0.28 0.28 0.28 0.28 0.27 0.27 0.26 0.26 0.26 0.26 0.25 0.25 0.23 0.22 0.22 0.21 0.21 0.20 0.19 0.18 0.17 0.17 0.17 0.17 0.18 0.17 0.17 0.16 0.16 0.15 0.15 0.15 0.15 0.15 0.15 0.14 0.14 0.14 0.14 0.13 0.13 0.13 0.12 0.12 0.12 0.13 0.13 0.13 0.13 0.13 0.13 0.13 0.13 0.13 0.13 0.13 0.12 0.12 0.12 0.11 0.11 0.11 0.11 0.10 0.10 0.09 0.09 0.08 0.08 0.08 0.07 0.07 0.07 0.06 0.06 0.05
0.27 0.27 0.28 0.28 0.28 0.28 0.28 0.27 0.27 0.27 0.27 0.27 0.26 0.26 0.26 0.26 0.26 0.25 0.24 0.25 0.24 0.24 0.23 0.22 0.22 0.21 0.20 0.19 0.19 0.18 0.17 0.18 0.18 0.18 0.18 0.17 0.17 0.16 0.16 0.15 0.15 0.15 0.15 0.15 0.14 0.14 0.13 0.13 0.13 0.12 0.12 0.12 0.12 0.12 0.12 0.13 0.13 0.13 0.13 0.13 0.13 0.13 0.13 0.13 0.13 0.12 0.12 0.12 0.11 0.11 0.11 0.10 0.10 0.09 0.09 0.08 0.08 0.08 0.07 0.07 0.07 0.06 0.06 0.05 0.04
0.26 0.26 0.26 0.27 0.27 0.26 0.26 0.26 0.26 0.26 0.26 0.26 0.25 0.25 0.24 0.25 0.25 0.24 0.24 0.24 0.24 0.23 0.23 0.22 0.22 0.21 0.20 0.19 0.19 0.19 0.19 0.19 0.18 0.18 0.18 0.17 0.17 0.17 0.16 0.16 0.15 0.15 0.15 0.14 0.14 0.13 0.13 0.12 0.12 0.12 0.12 0.12 0.12 0.12 0.12 0.12 0.13 0.12 0.13 0.13 0.13 0.13 0.13 0.13 0.13 0.12 0.12 0.11 0.11 0.11 0.10 0.10 0.10 0.09 0.09 0.08 0.08 0.07 0.07 0.07 0.06 0.06 0.05 0.04 0.04
0.25 0.25 0.25 0.25 0.25 0.25 0.25 0.25 0.25 0.25 0.24 0.24 0.24 0.24 0.23 0.23 0.23 0.23 0.23 0.23 0.23 0.22 0.22 0.22 0.21 0.21 0.21 0.20 0.19 0.19 0.19 0.18 0.18 0.18 0.17 0.17 0.17 0.16 0.16 0.16 0.15 0.15 0.14 0.14 0.13 0.13 0.12 0.12 0.12 0.12 0.12 0.12 0.12 0.12 0.12 0.12 0.12 0.12 0.13 0.13 0.13 0.13 0.13 0.13 0.13 0.12 0.12 0.11 0.11 0.11 0.10 0.10 0.09 0.09 0.08 0.08 0.08 0.07 0.07 0.06 0.06 0.05 0.05 0.04 0.04
0.24 0.24 0.24 0.24 0.24 0.24 0.24 0.24 0.24 0.23 0.23 0.23 0.23 0.22 0.22 0.21 0.21 0.21 0.22 0.22 0.22 0.21 0.21 0.21 0.21 0.20 0.20 0.20 0.20 0.19 0.19 0.18 0.18 0.18 0.17 0.17 0.16 0.16 0.16 0.15 0.15 0.15 0.14 0.13 0.13 0.12 0.12 0.12 0.12 0.12 0.11 0.11 0.11 0.11 0.12 0.12 0.12 0.12 0.12 0.13 0.13 0.13 0.13 0.13 0.13 0.12 0.11 0.11 0.11 0.10 0.10 0.10 0.09 0.09 0.08 0.08 0.07 0.07 0.06 0.06 0.05 0.05 0.05 0.05 0.04
0.23 0.23 0.23 0.23 0.23 0.23 0.23 0.23 0.22 0.22 0.22 0.22 0.22 0.21 0.21 0.21 0.20 0.20 0.20 0.20 0.20 0.20 0.20 0.20 0.20 0.20 0.20 0.19 0.19 0.19 0.19 0.18 0.18 0.17 0.17 0.16 0.16 0.16 0.15 0.15 0.14 0.14 0.14 0.13 0.12 0.12 0.11 0.11 0.11 0.11 0.11 0.11 0.11 0.11 0.11 0.12 0.12 0.12 0.12 0.13 0.13 0.13 0.13 0.13 0.12 0.11 0.11 0.11 0.11 0.10 0.10 0.09 0.09 0.08 0.08 0.07 0.07 0.06 0.06 0.05 0.05 0.05 0.04 0.04 0.04
0.22 0.22 0.22 0.22 0.22 0.21 0.21 0.21 0.21 0.21 0.21 0.21 0.20 0.20 0.20 0.20 0.19 0.19 0.19 0.18 0.18 0.18 0.18 0.18 0.19 0.19 0.18 0.18 0.18 0.18 0.18 0.17 0.17 0.17 0.16 0.16 0.15 0.15 0.14 0.14 0.13 0.13 0.13 0.12 0.12 0.11 0.11 0.11 0.11 0.10 0.10 0.10 0.10 0.11 0.11 0.12 0.12 0.12 0.12 0.13 0.13 0.13 0.13 0.12 0.12 0.11 0.11 0.11 0.10 0.10 0.09 0.09 0.08 0.08 0.08 0.07 0.07 0.06 0.05 0.05 0.05 0.05 0.04 0.04 0.05
0.20 0.20 0.21 0.21 0.21 0.20 0.20 0.20 0.20 0.20 0.20 0.19 0.19 0.19 0.19 0.19 0.18 0.18 0.18 0.18 0.17 0.17 0.17 0.17 0.17 0.18 0.18 0.18 0.17 0.17 0.17 0.16 0.16 0.16 0.15 0.15 0.15 0.14 0.13 0.12 0.12 0.12 0.11 0.11 0.11 0.11 0.11 0.10 0.10 0.10 0.10 0.10 0.10 0.11 0.11 0.12 0.12 0.12 0.12 0.13 0.13 0.13 0.12 0.12 0.11 0.11 0.11 0.11 0.10 0.10 0.09 0.09 0.08 0.08 0.07 0.07 0.06 0.05 0.05 0.05 0.05 0.05 0.05 0.05 0.05
0.19 0.19 0.19 0.19 0.19 0.19 0.19 0.19 0.19 0.19 0.18 0.18 0.18 0.18 0.18 0.18 0.17 0.17 0.17 0.17 0.17 0.16 0.16 0.16 0.16 0.16 0.16 0.16 0.16 0.16 0.16 0.15 0.15 0.15 0.15 0.14 0.14 0.13 0.13 0.12 0.11 0.11 0.11 0.11 0.11 0.10 0.10 0.10 0.10 0.10 0.10 0.10 0.11 0.11 0.11 0.11 0.12 0.12 0.13 0.13 0.13 0.13 0.12 0.12 0.11 0.11 0.11 0.10 0.10 0.09 0.09 0.08 0.08 0.07 0.07 0.06 0.05 0.05 0.05 0.05 0.05 0.05 0.05 0.05 0.05
0.18 0.18 0.18 0.17 0.17 0.17 0.17 0.17 0.17 0.17 0.17 0.17 0.16 0.16 0.16 0.16 0.16 0.16 0.16 0.16 0.15 0.15 0.15 0.15 0.15 0.14 0.14 0.14 0.15 0.15 0.15 0.14 0.14 0.14 0.14 0.14 0.13 0.13 0.12 0.12 0.11 0.11 0.10 0.10 0.10 0.10 0.10 0.10 0.10 0.10 0.10 0.10 0.11 0.11 0.11 0.11 0.12 0.12 0.13 0.13 0.13 0.13 0.12 0.11 0.11 0.11 0.11 0.10 0.10 0.09 0.08 0.08 0.08 0.07 0.06 0.06 0.05 0.05 0.05 0.05 0.05 0.05 0.05 0.05 0.06
0.16 0.16 0.16 0.16 0.16 0.16 0.16 0.16 0.16 0.16 0.16 0.16 0.15 0.15 0.15 0.15 0.15 0.15 0.15 0.15 0.14 0.14 0.14 0.14 0.14 0.14 0.14 0.14 0.14 0.14 0.14 0.13 0.13 0.12 0.12 0.12 0.12 0.12 0.12 0.11 0.11 0.11 0.10 0.10 0.10 0.10 0.10 0.10 0.10 0.10 0.10 0.10 0.11 0.11 0.11 0.11 0.12 0.12 0.13 0.13 0.13 0.12 0.12 0.11 0.11 0.11 0.10 0.10 0.09 0.09 0.08 0.08 0.07 0.06 0.06 0.05 0.05 0.05 0.05 0.05 0.05 0.05 0.05 0.06 0.06
0.15 0.15 0.15 0.15 0.15 0.15 0.15 0.15 0.15 0.14 0.14 0.14 0.14 0.14 0.14 0.14 0.14 0.14 0.14 0.14 0.13 0.13 0.13 0.13 0.13 0.13 0.13 0.13 0.13 0.13 0.12 0.12 0.12 0.12 0.11 0.11 0.11 0.11 0.11 0.11 0.10 0.10 0.10 0.10 0.10 0.10 0.10 0.10 0.10 0.10 0.10 0.10 0.11 0.11 0.11 0.11 0.12 0.12 0.13 0.13 0.12 0.12 0.11 0.11 0.11 0.10 0.10 0.09 0.09 0.08 0.08 0.07 0.07 0.06 0.05 0.05 0.05 0.05 0.05 0.05 0.05 0.05 0.06 0.06 0.07
0.14 0.14 0.14 0.14 0.14 0.14 0.14 0.14 0.14 0.14 0.14 0.13 0.13 0.13 0.13 0.13 0.13 0.13 0.13 0.13 0.13 0.13 0.12 0.12 0.12 0.12 0.12 0.12 0.12 0.12 0.12 0.11 0.11 0.11 0.11 0.11 0.10 0.10 0.10 0.10 0.10 0.10 0.10 0.09 0.09 0.10 0.10 0.10 0.10 0.10 0.10 0.10 0.11 0.11 0.11 0.12 0.12 0.12 0.13 0.13 0.12 0.12 0.11 0.11 0.10 0.10 0.10 0.09 0.08 0.08 0.07 0.07 0.06 0.06 0.05 0.05 0.05 0.05 0.05 0.05 0.06 0.06 0.06 0.07 0.07
0.13 0.13 0.13 0.13 0.13 0.13 0.12 0.12 0.12 0.13 0.13 0.12 0.12 0.12 0.12 0.12 0.12 0.12 0.12 0.12 0.12 0.12 0.12 0.11 0.11 0.12 0.12 0.11 0.11 0.11 0.11 0.11 0.10 0.10 0.10 0.10 0.10 0.10 0.10 0.10 0.10 0.10 0.09 0.09 0.10 0.10 0.10 0.10 0.10 0.10 0.10 0.10 0.11 0.11 0.11 0.12 0.12 0.13 0.13 0.12 0.12 0.11 0.11 0.10 0.10 0.10 0.09 0.09 0.08 0.07 0.07 0.06 0.06 0.05 0.05 0.05 0.05 0.05 0.05 0.06 0.06 0.06 0.07 0.07 0.08
0.11 0.11 0.11 0.11 0.11 0.11 0.11 0.11 0.11 0.11 0.11 0.11 0.11 0.11 0.11 0.11 0.11 0.11 0.11 0.11 0.11 0.11 0.11 0.11 0.11 0.11 0.11 0.11 0.11 0.10 0.10 0.10 0.10 0.09 0.09 0.09 0.09 0.09 0.09 0.09 0.09 0.09 0.10 0.10 0.10 0.10 0.10 0.10 0.10 0.10 0.10 0.10 0.11 0.11 0.12 0.12 0.13 0.13 0.12 0.12 0.11 0.11 0.11 0.10 0.10 0.09 0.09 0.08 0.07 0.07 0.06 0.06 0.05 0.05 0.05 0.05 0.05 0.05 0.06 0.06 0.06 0.07 0.07 0.08 0.09
0.09 0.09 0.10 0.09 0.09 0.10 0.10 0.10 0.09 0.09 0.09 0.10 0.10 0.10 0.10 0.10 0.10 0.10 0.10 0.10 0.10 0.10 0.10 0.10 0.10 0.10 0.10 0.10 0.10 0.09 0.09 0.09 0.09 0.09 0.09 0.09 0.08 0.08 0.08 0.09 0.09 0.09 0.10 0.10 0.10 0.10 0.10 0.10 0.10 0.10 0.10 0.11 0.11 0.12 0.12 0.13 0.13 0.13 0.12 0.12 0.11 0.11 0.10 0.10 0.09 0.09 0.08 0.08 0.07 0.06 0.05 0.05 0.05 0.05 0.05 0.05 0.05 0.06 0.06 0.06 0.06 0.07 0.08 0.09 0.10
0.08 0.08 0.08 0.08 0.08 0.08 0.08 0.08 0.08 0.08 0.08 0.08 0.08 0.09 0.09 0.09 0.09 0.09 0.09 0.09 0.09 0.09 0.09 0.09 0.09 0.09 0.08 0.08 0.08 0.08 0.08 0.08 0.08 0.08 0.08 0.08 0.08 0.08 0.09 0.09 0.09 0.09 0.09 0.10 0.10 0.10 0.10 0.10 0.10 0.10 0.10 0.11 0.11 0.12 0.13 0.13 0.13 0.13 0.12 0.11 0.11 0.10 0.10 0.10 0.09 0.09 0.08 0.07 0.06 0.05 0.05 0.05 0.05 0.05 0.05 0.05 0.06 0.06 0.06 0.06 0.07 0.07 0.08 0.10 0.11
0.07 0.07 0.07 0.07 0.07 0.08 0.08 0.08 0.08 0.08 0.08 0.08 0.08 0.08 0.08 0.08 0.08 0.08 0.08 0.08 0.08 0.08 0.08 0.08 0.08 0.08 0.08 0.08 0.08 0.08 0.07 0.08 0.08 0.08 0.08 0.08 0.08 0.08 0.09 0.09 0.09 0.09 0.10 0.10 0.10 0.10 0.10 0.10 0.10 0.10 0.10 0.11 0.12 0.12 0.13 0.13 0.12 0.12 0.11 0.11 0.10 0.10 0.10 0.09 0.09 0.08 0.07 0.06 0.06 0.05 0.05 0.05 0.05 0.05 0.05 0.06 0.06 0.06 0.06 0.07 0.07 0.08 0.09 0.10 0.12
0.07 0.07 0.07 0.07 0.07 0.07 0.07 0.07 0.07 0.07 0.07 0.07 0.07 0.07 0.07 0.07 0.07 0.07 0.07 0.07 0.07 0.07 0.07 0.07 0.07 0.07 0.07 0.07 0.07 0.07 0.08 0.08 0.08 0.08 0.08 0.08 0.08 0.08 0.09 0.09 0.09 0.09 0.09 0.10 0.10 0.10 0.10 0.10 0.10 0.10 0.11 0.11 0.12 0.12 0.12 0.12 0.12 0.11 0.11 0.11 0.10 0.10 0.09 0.09 0.08 0.07 0.07 0.06 0.06 0.05 0.05 0.05 0.05 0.05 0.06 0.06 0.06 0.06 0.07 0.07 0.08 0.09 0.10 0.11 0.12
0.07 0.07 0.07 0.07 0.07 0.07 0.07 0.07 0.07 0.07 0.07 0.07 0.07 0.07 0.07 0.07 0.07 0.07 0.07 0.07 0.07 0.07 0.07 0.07 0.07 0.07 0.07 0.07 0.08 0.08 0.08 0.08 0.08 0.08 0.08 0.08 0.08 0.09 0.09 0.09 0.09 0.09 0.09 0.09 0.10 0.10 0.10 0.10 0.10 0.11 0.11 0.12 0.12 0.12 0.12 0.12 0.12 0.11 0.11 0.10 0.10 0.10 0.09 0.08 0.08 0.07 0.06 0.06 0.05 0.05 0.05 0.05 0.05 0.06 0.06 0.06 0.06 0.06 0.07 0.08 0.09 0.10 0.11 0.12 0.13
0.06 0.06 0.06 0.06 0.06 0.07 0.07 0.07 0.07 0.07 0.07 0.07 0.07 0.07 0.07 0.07 0.07 0.07 0.07 0.07 0.07 0.07 0.07 0.07 0.07 0.08 0.08 0.08 0.08 0.08 0.08 0.08 0.08 0.08 0.08 0.08 0.09 0.09 0.09 0.09 0.09 0.09 0.09 0.09 0.10 0.10 0.10 0.10 0.10 0.11 0.11 0.12 0.12 0.12 0.12 0.11 0.11 0.11 0.10 0.10 0.10 0.09 0.08 0.08 0.07 0.06 0.06 0.05 0.05 0.05 0.05 0.05 0.06 0.06 0.06 0.06 0.06 0.07 0.08 0.09 0.10 0.11 0.12 0.13 0.13
0.06 0.06 0.06 0.06 0.06 0.06 0.06 0.07 0.07 0.07 0.07 0.07 0.07 0.07 0.07 0.07 0.07 0.07 0.07 0.07 0.07 0.07 0.07 0.08 0.08 0.08 0.08 0.08 0.08 0.08 0.08 0.08 0.08 0.08 0.08 0.08 0.09 0.09 0.09 0.09 0.09 0.09 0.09 0.09 0.10 0.10 0.10 0.10 0.11 0.11 0.12 0.12 0.12 0.12 0.11 0.11 0.10 0.10 0.10 0.09 0.09 0.08 0.08 0.07 0.06 0.06 0.06 0.05 0.05 0.05 0.05 0.06 0.06 0.06 0.06 0.06 0.07 0.08 0.09 0.10 0.11 0.12 0.13 0.13 0.13
0.05 0.06 0.06 0.06 0.06 0.06 0.06 0.06 0.06 0.07 0.07 0.07 0.07 0.07 0.07 0.07 0.07 0.07 0.07 0.07 0.07 0.07 0.08 0.08 0.08 0.08 0.08 0.08 0.08 0.08 0.08 0.08 0.08 0.08 0.08 0.08 0.09 0.09 0.09 0.09 0.09 0.09 0.09 0.09 0.09 0.10 0.10 0.10 0.11 0.11 0.11 0.11 0.11 0.11 0.10 0.10 0.10 0.10 0.09 0.09 0.08 0.08 0.07 0.06 0.06 0.06 0.05 0.05 0.05 0.06 0.06 0.06 0.06 0.06 0.06 0.07 0.08 0.09 0.10 0.11 0.12 0.13 0.13 0.13 0.14
Wind_Speed
22 22 22 22 22 22 22 22 23 23 23 23 24 24 25 25 24 24 24 24 24 24 24 24 24 24 24 24 24 24 24 25 25 25 25 25 25 25 26 26 26 26 26 26 26 27 27 27 28 28 28 28 29 29 29 29 29 29 30 30 30 30 30 31 31 31 32 32 32 33 33 34 34 34 35 36 36 36 36 37 36 37 37 37 36
23 23 22 22 22 22 23 23 23 23 23 23 24 25 25 25 25 25 24 24 24 24 24 24 25 25 25 25 24 25 25 25 25 25 25 25 26 26 26 26 26 26 27 27 27 27 28 28 28 29 29 29 29 29 29 30 30 30 30 30 30 30 30 31 31 32 32 32 33 33 33 34 34 34 35 36 36 37 37 37 37 37 37 37 37
23 23 23 23 23 23 23 23 23 23 23 23 24 25 25 25 25 25 24 24 24 24 24 24 24 24 25 25 24 25 25 25 25 25 25 26 26 26 26 26 27 27 27 27 28 28 28 28 29 29 29 29 29 30 30 30 30 30 30 30 30 30 31 31 31 31 32 33 33 33 34 34 34 35 36 36 37 37 37 37 37 37 37 37 37
24 23 23 23 23 24 24 23 23 23 23 24 24 25 25 25 25 25 24 24 24 24 24 24 24 24 24 24 24 25 25 25 25 25 26 26 26 26 27 27 27 27 28 28 28 28 29 29 29 30 30 30 30 30 30 30 30 30 31 30 30 31 31 31 31 31 32 32 33 33 34 34 34 35 36 37 37 37 37 37 38 37 37 37 37
24 24 24 24 24 24 24 24 24 24 24 24 25 25 26 26 25 25 24 24 24 24 24 24 24 24 24 25 25 25 25 25 26 26 26 26 27 27 27 27 27 28 28 28 29 29 29 30 30 30 30 30 30 30 31 31 31 30 31 31 30 31 31 31 31 31 32 33 33 34 34 34 35 35 36 37 37 37 37 37 37 37 37 37 37
25 25 25 24 24 24 25 24 24 25 24 24 25 26 26 26 26 25 25 24 24 24 24 25 24 24 25 25 25 25 26 26 26 26 27 27 27 27 27 28 28 28 29 29 29 29 30 30 30 30 30 30 31 31 31 31 31 31 31 31 31 31 31 31 32 32 32 33 33 34 34 35 35 36 36 37 37 38 38 38 37 37 37 37 37
24 25 25 25 25 25 25 25 25 25 25 25 25 26 26 26 26 25 25 25 25 24 25 25 25 25 25 25 26 26 26 26 26 27 27 27 27 27 28 28 28 29 29 29 29 30 30 30 30 30 30 31 31 31 31 31 31 31 31 31 31 31 31 31 32 32 32 33 33 34 34 35 36 36 37 37 37 37 38 39 38 38 37 37 37
24 25 25 25 26 26 26 25 25 25 25 25 26 26 26 26 26 25 25 25 25 25 25 25 25 25 25 26 26 26 27 27 27 27 27 27 28 28 28 28 28 29 29 29 30 30 30 30 31 31 31 31 31 31 31 31 31 31 31 31 31 31 31 31 31 32 32 33 34 34 35 36 36 37 37 38 38 38 38 39 39 39 38 38 37
24 25 25 25 25 26 26 26 26 26 25 25 26 26 26 26 26 25 25 25 25 25 25 25 25 25 26 26 26 27 27 27 27 27 28 28 28 28 28 28 29 29 29 29 30 30 30 31 31 31 31 30 30 30 30 30 30 30 31 31 31 31 31 31 32 32 33 33 34 35 35 36 37 37 38 38 38 39 39 39 39 39 39 38 37
25 25 25 25 25 25 25 25 26 26 26 26 26 27 26 26 26 25 25 25 25 25 25 26 26 26 26 27 27 27 28 28 28 28 28 28 28 28 28 29 29 29 29 30 30 30 30 30 30 30 30 30 30 30 30 30 30 30 30 30 31 31 31 32 32 33 33 34 35 35 36 36 37 37 38 38 39 39 39 39 39 39 39 38 37
25 25 25 26 26 26 25 26 26 27 27 27 26 27 27 26 26 26 26 26 26 26 26 26 27 27 27 27 28 28 28 28 28 28 28 28 28 29 29 29 29 29 29 30 29 29 30 30 30 30 30 30 30 30 30 30 30 30 30 30 31 31 32 32 33 33 34 34 35 36 36 37 38 38 38 39 39 39 39 39 38 38 38 37 37
25 25 26 26 26 26 26 27 27 27 27 27 27 27 27 27 26 26 27 27 27 27 27 27 27 27 28 28 28 28 28 29 28 28 28 28 28 28 28 29 29 29 29 29 29 29 29 29 29 29 29 29 29 30 30 30 30 30 31 31 32 32 32 33 33 34 35 35 36 36 37 38 38 38 39 39 39 39 39 38 38 38 38 37 37
26 26 26 26 27 27 27 27 28 28 28 28 28 27 27 27 27 27 27 27 27 28 28 28 28 28 28 28 28 28 29 29 28 28 28 28 28 28 28 28 28 28 28 28 29 29 29 29 29 29 29 29 29 30 30 30 31 31 32 32 33 33 33 34 34 35 35 36 37 37 38 38 39 39 39 39 39 39 39 38 38 38 37 37 37
26 26 26 27 27 27 27 28 28 28 28 28 28 27 27 27 28 28 28 28 28 28 28 28 28 28 28 28 28 29 29 29 28 28 28 27 27 27 27 27 28 27 28 28 28 28 29 29 29 29 29 30 30 30 31 31 32 33 33 34 34 34 35 35 36 36 36 37 37 38 38 39 39 39 39 39 39 38 38 38 38 38 37 37 37
27 27 27 28 28 28 28 28 29 29 28 28 27 27 28 28 28 28 28 28 28 28 28 28 28 28 28 29 29 29 29 29 28 28 28 27 27 27 27 27 27 27 27 28 28 28 29 29 30 30 30 31 31 32 32 33 34 34 35 35 35 36 36 36 37 37 38 38 38 39 39 39 39 39 39 39 39 38 38 38 37 37 37 36 36
27 27 28 28 28 28 28 28 29 29 28 28 27 27 28 29 29 29 29 29 28 28 29 29 29 29 29 29 29 29 29 29 28 28 28 27 26 26 27 27 27 27 28 28 29 29 30 30 31 31 31 32 33 34 34 34 35 36 36 36 36 36 36 37 37 38 38 39 39 39 39 40 40 39 39 39 38 37 37 37 36 35 35 35 34
27 28 28 28 28 29 29 29 29 29 28 28 28 28 29 29 29 29 29 29 29 29 29 30 30 30 30 30 30 30 30 29 29 28 28 27 26 27 27 28 28 28 29 29 30 30 31 31 32 32 33 33 34 35 35 36 36 37 37 37 37 37 37 37 38 39 39 39 39 39 39 39 39 39 38 38 37 36 35 35 34 33 33 33 32
28 28 28 29 29 29 29 29 29 29 29 29 29 29 30 30 30 30 29 29 30 30 31 31 31 31 31 31 31 30 30 30 29 28 28 27 27 27 28 28 29 29 30 30 31 31 32 32 33 33 34 34 35 36 36 37 37 37 38 38 38 38 37 38 38 39 39 39 39 39 39 39 38 38 37 36 35 34 33 33 32 32 31 31 31
28 28 29 29 29 29 29 30 30 30 30 29 29 30 30 30 30 30 30 30 31 31 32 32 32 32 32 32 31 31 30 30 29 29 29 28 28 28 29 29 30 31 31 31 32 32 32 33 33 34 34 35 36 37 37 38 38 37 38 38 38 38 38 38 38 38 38 38 38 38 38 38 37 36 35 34 33 32 31 30 30 30 30 30 30
28 29 29 29 29 30 30 30 31 31 30 30 30 31 31 31 31 31 32 32 32 33 33 33 33 33 33 32 32 32 31 30 30 30 30 29 28 29 30 30 31 32 32 32 32 33 33 33 34 34 35 36 36 37 38 38 37 37 38 38 38 38 38 38 38 38 38 38 38 37 37 36 35 34 33 32 31 30 30 29 28 28 28 29 30
29 29 30 30 30 31 31 31 31 31 31 31 32 32 32 33 33 33 33 34 33 34 34 34 34 35 34 33 33 32 31 31 30 30 30 29 29 30 31 31 32 32 33 33 33 33 34 34 34 35 35 36 36 37 37 37 36 37 37 37 37 37 37 37 37 37 37 36 36 35 34 34 33 32 31 30 29 29 28 28 28 28 28 29 30
30 30 30 31 31 32 32 32 32 32 32 32 33 33 33 34 34 34 34 34 34 35 35 36 36 36 35 34 33 32 32 31 31 30 30 30 30 31 31 32 32 33 33 33 33 34 34 34 35 35 36 36 36 37 37 36 37 37 37 37 37 37 37 36 36 36 35 34 34 33 32 31 31 29 29 28 28 27 27 27 27 28 28 29 30
31 31 31 32 32 33 33 33 33 33 33 34 34 34 35 35 34 35 35 35 35 36 36 36 36 36 35 34 33 32 32 31 31 31 31 31 31 32 32 33 33 33 33 34 34 34 34 34 35 35 36 36 36 36 36 36 36 36 36 36 36 36 35 35 34 34 33 33 32 31 30 29 29 28 27 27 26 26 26 26 27 28 29 29 30
32 32 32 33 33 34 34 34 34 34 34 35 35 35 35 35 35 36 36 36 36 37 37 36 36 35 35 34 33 32 32 31 31 32 32 32 32 32 33 33 33 33 34 34 34 34 35 35 35 36 36 36 36 36 36 36 36 36 35 35 35 34 33 33 32 32 32 31 30 30 29 28 27 26 26 25 25 25 26 26 27 28 29 29 30
33 33 34 34 34 35 35 35 35 35 36 36 36 36 36 36 36 36 36 37 37 37 37 36 35 35 34 34 33 32 32 31 31 32 32 33 33 33 34 33 34 34 34 35 35 35 35 36 36 37 37 36 36 36 36 35 35 34 34 34 33 32 32 31 31 31 30 30 29 28 27 26 25 25 25 24 24 25 25 26 27 28 28 29 30
34 34 35 35 36 36 36 36 36 36 36 37 37 37 37 37 37 37 37 37 38 37 37 36 36 35 35 34 33 32 32 32 32 32 32 33 33 34 34 34 34 34 35 35 36 36 36 36 37 37 37 36 35 35 34 34 34 33 33 32 32 31 30 30 30 29 29 28 27 26 25 24 24 24 24 23 23 24 24 25 26 27 28 28 29
35 35 36 36 37 37 37 37 36 37 37 37 37 37 37 37 37 38 38 38 38 37 37 36 36 35 35 34 33 33 32 32 32 33 33 33 34 34 34 34 35 35 35 36 36 36 37 37 37 36 36 35 35 34 34 33 33 32 32 31 30 30 30 29 29 28 27 26 25 24 24 23 23 22 22 22 23 23 24 25 26 27 27 28 29
36 37 37 38 38 37 37 37 37 38 38 38 38 38 38 38 38 39 39 38 38 38 37 37 36 35 34 34 33 33 33 33 34 34 34 34 35 35 34 34 35 35 36 36 36 37 37 36 36 36 35 35 34 34 33 33 32 32 31 30 30 29 29 28 28 27 26 24 24 23 23 22 22 22 22 22 23 23 24 25 25 26 27 28 29
37 37 38 38 38 37 37 38 38 38 38 38 38 39 39 39 40 40 39 39 39 38 37 36 36 35 34 34 34 34 34 34 35 35 35 35 35 35 35 35 35 35 36 36 36 36 36 36 36 36 35 35 34 34 33 33 32 31 30 30 29 29 28 27 26 25 24 23 23 22 22 21 21 21 21 22 23 23 24 25 25 26 27 28 29
37 38 38 38 37 37 38 38 39 39 39 39 39 40 40 40 41 40 40 40 39 38 37 36 36 35 35 35 35 35 35 35 36 36 36 36 36 36 36 35 35 35 35 35 35 35 36 36 36 36 35 35 34 34 33 33 32 31 30 29 28 28 27 26 25 24 23 22 22 21 21 21 21 21 21 22 23 23 24 24 25 26 27 28 28
38 38 37 37 37 37 38 39 39 39 39 40 40 40 41 41 41 41 41 40 39 38 37 37 37 37 37 37 37 37 37 37 38 38 38 37 37 37 37 36 36 35 35 35 35 36 36 36 36 36 35 35 34 34 33 32 31 30 29 28 27 27 26 24 23 22 22 21 21 21 20 20 20 21 21 22 22 23 24 24 25 26 27 27 26
37 36 36 36 37 38 38 38 39 39 39 40 40 40 40 40 40 40 39 39 38 38 38 38 38 38 39 39 39 39 39 39 39 39 39 38 38 38 38 37 36 36 36 36 36 37 37 36 36 36 36 35 34 33 33 32 30 29 28 27 26 25 24 23 22 21 21 20 20 20 19 19 20 20 21 21 22 23 23 24 25 26 25 25 25
35 35 35 36 37 37 37 38 38 39 39 39 40 40 40 40 39 39 38 38 38 38 38 39 39 39 39 40 40 40 40 40 40 39 39 38 38 38 38 37 37 37 37 37 37 37 37 37 37 36 36 35 34 33 32 31 29 28 27 26 25 24 23 21 20 20 20 19 19 19 19 19 19 20 20 21 21 22 23 24 25 24 24 24 24
34 34 35 36 36 37 37 38 38 39 39 39 39 39 39 39 39 39 39 39 39 39 40 40 40 40 40 40 40 41 41 40 40 39 39 38 38 38 38 38 38 38 37 38 38 38 37 37 37 37 36 34 33 32 31 29 28 26 26 25 24 22 21 20 19 19 19 18 18 18 18 18 19 19 20 20 21 22 23 23 23 23 23 23 24
34 34 35 36 36 37 38 38 39 39 39 39 39 39 39 40 40 40 40 40 40 41 41 41 41 41 40 40 40 40 40 40 39 39 39 38 38 38 38 38 38 38 38 38 38 38 38 37 37 36 35 33 32 31 29 28 26 25 24 23 22 21 20 19 18 18 18 17 17 17 18 18 18 19 19 20 21 22 22 22 21 21 22 23 24
35 35 36 36 37 38 38 39 39 40 40 40 40 40 41 41 41 41 41 41 42 42 42 41 41 41 40 40 40 40 40 39 39 39 39 39 39 39 38 38 38 38 39 39 38 38 37 37 36 35 34 32 30 29 28 26 25 23 23 21 20 19 18 18 17 17 17 17 17 17 17 17 18 18 18 20 20 20 20 20 20 21 21 22 24
36 36 37 38 38 39 40 40 41 41 41 41 42 42 42 42 42 42 42 42 42 42 42 42 41 41 40 40 40 40 40 39 39 39 39 39 39 39 39 39 39 39 39 39 38 38 37 36 35 34 32 30 29 27 26 24 23 22 21 20 18 18 17 17 16 16 16 16 16 16 16 17 17 17 18 19 19 19 19 19 20 20 22 23 24
38 38 39 40 40 41 41 42 42 42 43 43 43 43 43 43 43 43 43 43 43 42 42 42 41 41 40 40 40 39 39 39 39 39 40 40 40 39 39 39 39 39 39 39 38 37 36 35 33 31 29 28 27 25 24 23 21 21 19 18 17 17 16 16 15 15 15 15 15 15 16 16 16 17 18 18 17 17 18 18 19 20 22 23 24
40 40 41 42 42 42 43 43 43 43 43 44 44 44 44 44 44 43 43 43 43 42 42 42 41 41 40 40 40 40 39 40 40 40 40 40 39 39 39 39 39 39 39 38 37 36 35 33 31 29 27 26 25 23 22 21 20 19 18 17 16 16 15 15 14 14 14 14 14 15 15 15 16 16 16 16 16 16 17 18 19 20 22 23 24
41 42 42 43 43 43 44 44 44 44 44 44 44 44 44 44 44 43 43 43 42 42 42 42 41 41 41 41 41 40 40 40 40 40 40 39 39 39 39 39 39 39 38 38 36 34 32 30 28 27 26 24 23 22 20 19 18 17 16 15 15 15 14 14 13 13 13 13 14 14 14 15 15 15 14 14 15 16 16 18 19 20 21 23 24
43 43 44 44 44 45 45 45 45 45 45 44 44 44 44 44 43 43 43 43 43 42 42 42 42 42 41 41 41 41 41 41 40 40 40 39 39 38 38 38 38 38 37 35 33 31 29 27 26 25 24 23 22 20 19 18 17 16 15 15 14 14 13 13 12 12 12 13 13 13 13 14 14 13 13 14 14 15 16 17 19 20 21 23 24
44 45 45 45 46 46 46 46 45 45 45 45 45 44 44 44 44 43 43 43 43 43 42 42 42 42 42 42 42 41 40 40 40 40 39 39 39 38 38 37 36 35 33 31 29 28 26 25 24 23 22 21 20 19 18 17 15 15 14 14 13 13 12 12 12 12 12 12 12 12 13 13 12 12 12 13 14 15 16 17 18 19 21 23 25
46 46 46 46 46 46 46 46 46 45 45 44 44 44 44 43 43 43 43 43 42 42 42 42 41 41 41 41 40 40 40 39 39 39 38 38 38 37 36 35 33 31 29 28 27 25 24 23 22 22 21 20 19 17 16 15 14 14 13 13 12 12 11 11 11 11 11 11 11 12 12 11 11 11 12 12 13 14 16 17 18 20 21 23 25
47 47 47 47 46 46 45 45 44 43 43 42 42 42 41 41 41 41 41 41 40 40 40 40 40 39 39 39 39 38 38 38 37 37 36 36 35 34 32 31 29 28 27 26 25 24 23 22 21 20 19 18 17 16 15 14 14 13 13 12 11 11 10 10 10 10 10 10 11 11 10 10 10 10 11 12 13 14 15 17 18 20 22 24 26
46 46 45 45 44 43 42 42 41 40 40 39 39 38 38 38 38 38 38 38 37 37 37 37 37 37 36 36 36 36 35 35 34 33 32 31 30 29 28 27 26 26 25 24 23 22 21 21 20 19 18 17 15 14 14 14 13 13 12 12 11 10 10 9 9 9 9 10 9 9 9 9 9 10 10 11 13 14 15 17 18 20 22 24 26
44 43 43 42 41 40 39 38 37 37 36 36 36 35 35 34 34 34 34 34 34 33 33 33 33 33 32 32 32 31 30 30 29 28 27 26 26 25 24 24 23 23 22 22 21 20 19 18 18 17 16 15 14 14 13 13 12 12 11 11 10 10 9 9 9 9 9 9 8 8 8 8 8 9 10 12 13 14 15 17 19 20 22 25 27
42 41 40 39 38 38 37 36 35 34 34 33 33 32 32 31 31 31 30 30 30 30 29 29 29 28 28 27 27 26 26 25 24 24 23 23 22 22 22 21 21 20 20 19 19 18 17 16 16 15 14 14 13 13 12 12 11 11 10 10 9 9 8 8 8 8 8 7 7 7 7 7 8 9 10 11 12 14 16 17 19 21 23 25 27
40 39 38 37 37 36 35 34 33 33 32 31 31 30 29 29 29 28 28 27 27 26 26 25 25 24 24 23 23 22 22 22 21 21 21 20 20 20 19 19 19 18 18 17 17 16 15 15 14 14 13 13 13 12 12 11 11 10 9 9 8 8 7 7 7 7 7 6 6 6 6 7 7 9 10 11 12 14 16 18 20 22 23 25 27
38 37 36 36 35 35 34 33 32 31 31 30 29 28 28 27 26 26 25 25 24 24 23 22 22 21 21 21 20 20 20 19 19 19 18 18 18 18 17 17 16 16 16 16 15 14 14 13 13 12 13 13 12 12 11 11 10 9 9 8 8 7 7 6 6 6 6 6 6 6 6 6 7 9 10 11 13 14 16 18 20 22 24 25 26
35 34 34 34 33 33 32 32 31 30 29 28 28 27 26 25 25 24 23 23 22 21 21 20 20 19 19 19 18 18 18 17 17 17 17 16 16 16 16 15 15 14 14 14 13 12 12 12 12 12 12 12 12 11 11 10 9 9 8 7 7 6 6 6 6 5 5 5 5 5 5 6 7 9 10 11 13 15 17 19 20 22 23 25 26
32 32 32 32 31 31 31 30 29 29 28 27 26 25 24 24 23 22 22 21 20 19 19 18 18 18 17 17 17 17 16 16 16 15 15 15 15 15 14 14 13 13 12 11 11 11 11 11 11 12 12 11 11 11 10 10 9 8 7 7 6 6 5 5 5 5 4 4 4 4 5 6 7 9 10 11 13 15 17 19 20 22 23 24 25
Wind_Direction
288 291 294 296 298 300 301 304 306 307 308 310 310 310 310 309 307 305 304 302 301 300 300 299 298 298 297 297 296 296 296 297 298 298 297 297 298 298 298 298 298 298 299 300 301 302 302 303 303 303 303 302 302 302 302 301 301 300 300 299 299 298 299 299 298 298 300 302 303 304 304 306 306 307 309 309 309 310 310 310 310 310 309 309 309
287 290 293 295 297 299 301 304 306 308 310 312 312 311 312 311 310 307 305 304 303 301 301 300 299 298 298 297 297 297 297 297 298 298 297 297 298 298 298 298 298 299 299 300 301 301 302 302 303 303 303 303 303 302 302 301 301 300 300 299 299 299 299 299 299 299 300 301 303 304 305 305 306 307 308 309 309 309 310 310 310 309 309 309 309
286 288 291 293 295 297 299 302 305 306 309 311 311 312 313 313 311 309 307 306 305 303 302 301 300 300 299 298 298 297 297 297 298 298 297 297 298 297 298 298 298 299 300 300 301 301 301 302 302 303 302 302 303 302 302 302 301 301 300 299 299 299 299 300 299 299 300 302 303 303 304 305 305 306 307 308 309 309 310 310 310 310 310 310 309
285 287 290 291 293 295 297 300 303 305 306 308 309 311 313 313 312 310 308 307 306 305 304 303 302 301 300 299 299 298 298 298 298 298 298 298 298 298 298 299 299 299 299 300 300 301 301 302 302 302 302 302 302 302 302 302 301 301 300 299 299 299 299 300 300 300 300 301 302 303 304 305 305 306 307 308 308 309 309 310 310 310 310 310 309
285 287 288 290 292 294 295 299 301 302 304 306 308 310 312 313 312 310 309 308 307 306 306 304 303 303 301 301 300 299 299 299 298 299 299 299 298 298 298 299 299 299 299 300 300 301 301 301 302 302 302 302 302 302 302 302 302 301 301 300 299 299 300 300 300 300 300 301 301 302 303 304 305 306 307 308 308 308 309 309 310 310 310 310 309
282 284 286 289 291 292 294 296 299 300 302 304 306 308 311 312 311 310 309 308 307 307 306 305 304 304 303 302 301 300 300 300 299 299 299 299 298 299 298 299 299 299 299 300 300 301 301 301 301 301 301 302 302 302 302 302 302 301 301 300 300 300 300 300 300 300 300 301 302 303 304 305 305 306 307 308 308 308 309 309 309 309 309 308 308
280 282 284 286 289 290 292 294 296 299 300 302 304 306 309 310 310 309 309 308 307 307 307 306 305 304 304 303 302 301 301 300 300 299 299 299 299 299 299 299 299 299 300 300 300 301 301 301 301 301 301 302 302 302 302 302 302 301 301 301 301 300 300 300 301 301 301 302 303 304 304 305 306 306 307 308 308 308 309 309 309 309 309 308 307
280 282 283 285 286 289 291 293 295 297 299 300 302 304 307 309 308 308 308 308 308 307 307 307 306 306 305 304 303 302 301 301 300 299 299 299 299 299 299 299 299 299 300 300 300 300 301 301 301 301 302 302 302 303 303 302 302 302 302 302 302 301 301 301 302 302 303 303 304 304 305 305 306 306 307 308 308 308 309 309 308 308 308 308 306
279 281 283 285 287 289 290 291 293 296 297 299 300 303 305 307 307 307 307 307 307 307 307 307 307 306 305 305 304 303 302 301 300 299 299 299 299 299 299 300 300 300 300 300 300 301 301 301 301 302 302 303 303 304 304 304 303 302 302 302 302 302 302 302 303 303 303 304 304 305 305 305 306 307 308 308 309 308 309 309 308 307 307 307 306
280 281 283 285 287 289 290 290 292 293 295 297 299 301 304 304 305 305 305 305 305 306 306 306 306 306 305 305 304 303 302 301 300 300 300 300 300 300 300 300 300 301 301 301 301 301 301 302 302 303 303 303 304 304 304 305 304 304 304 303 303 303 303 303 303 303 304 304 305 305 306 306 307 307 307 308 308 308 308 308 308 307 308 307 306
280 281 282 284 286 288 289 289 290 291 293 296 297 299 301 302 302 303 303 304 304 304 305 305 305 305 305 305 304 303 302 301 301 301 301 301 302 301 301 301 301 301 301 302 301 301 302 302 303 303 303 304 304 304 305 305 305 305 305 305 304 304 304 304 304 304 304 304 305 305 306 306 306 307 307 307 307 307 308 308 307 307 307 306 305
279 280 282 284 286 287 288 288 289 291 293 295 296 297 299 301 301 301 302 302 303 304 305 305 305 305 305 305 305 304 303 302 301 301 301 302 302 302 302 302 301 302 302 302 302 302 302 303 303 304 304 304 305 305 305 305 305 305 305 305 305 305 305 304 304 304 304 304 305 305 306 306 306 306 306 307 307 307 307 307 306 306 306 305 304
279 280 282 284 284 285 286 287 289 290 292 294 295 297 298 300 300 300 301 302 303 304 304 304 305 305 306 305 305 304 304 303 302 302 301 301 303 304 303 303 303 303 303 303 303 304 304 304 304 304 305 305 305 305 305 305 305 305 305 305 304 305 305 305 304 304 304 304 305 305 305 305 305 306 306 306 306 306 306 306 306 305 305 304 304
279 280 282 283 283 284 285 286 288 290 292 293 295 296 297 298 299 299 300 301 302 303 304 304 304 305 306 306 305 305 304 303 303 302 301 301 303 305 305 305 304 304 304 304 304 305 305 305 304 304 305 305 305 305 305 305 305 305 305 305 304 304 304 304 304 304 304 304 304 304 304 305 305 305 305 305 305 305 305 305 305 305 304 304 304
280 280 282 283 282 283 283 285 287 290 291 293 294 295 296 298 299 299 300 301 302 303 304 304 304 305 305 305 305 305 305 303 303 302 301 301 303 304 304 305 304 304 304 304 304 304 304 305 305 305 305 305 304 304 304 304 305 305 305 305 304 304 303 303 304 304 304 304 303 304 304 304 304 304 304 304 304 303 304 304 304 304 304 305 305
280 281 282 282 282 283 283 284 286 288 290 292 293 294 296 297 298 299 299 300 301 302 303 304 304 305 305 305 305 305 305 303 302 302 301 300 302 303 304 305 305 304 304 304 304 304 304 305 305 305 304 304 304 304 304 304 304 305 305 305 304 304 303 303 304 304 304 303 303 303 303 303 303 303 303 304 303 303 304 304 304 305 305 306 306
281 281 281 282 282 283 283 284 285 288 289 291 292 293 295 296 297 298 298 299 300 301 303 303 304 304 304 304 304 304 304 302 301 302 301 299 301 302 303 304 305 304 304 304 303 303 304 304 304 304 304 304 304 304 305 304 304 304 305 305 304 304 303 303 304 304 304 303 303 303 303 303 303 303 304 304 303 304 304 305 305 306 306 306 306
282 282 281 281 282 282 283 284 285 287 289 290 291 293 295 296 296 297 297 298 299 301 302 303 303 303 303 303 303 303 303 301 300 300 299 298 299 301 302 303 304 304 304 304 303 303 303 303 303 304 304 304 304 304 304 305 304 304 304 304 304 303 303 303 303 303 303 303 303 303 303 303 304 304 304 304 304 304 305 305 306 307 307 307 306
284 283 282 282 282 283 283 284 285 286 288 289 291 293 294 295 295 296 297 299 300 301 302 302 303 303 302 302 302 301 301 300 299 298 298 297 298 300 301 303 304 304 304 304 304 304 303 303 303 303 304 304 304 305 305 305 305 304 304 304 304 303 302 303 303 303 303 303 303 303 303 304 304 303 303 303 304 304 304 304 306 307 307 307 308
285 284 283 283 283 283 283 284 285 286 287 288 290 292 294 294 295 295 297 298 299 300 301 301 302 302 301 301 300 300 299 299 297 297 296 296 297 299 301 303 304 304 304 304 304 304 304 304 304 304 304 305 305 305 305 305 305 304 304 304 304 303 303 303 303 303 303 303 303 303 304 304 304 303 303 303 304 304 304 305 306 307 307 308 309
286 284 284 283 283 283 283 284 285 286 286 287 289 291 292 293 294 294 296 297 298 299 299 300 301 301 300 299 299 298 298 297 297 296 295 295 298 299 301 302 304 304 304 304 304 304 305 305 305 305 305 305 305 306 306 305 305 304 305 304 304 303 304 304 303 303 303 303 304 304 304 304 304 303 303 304 304 304 304 305 306 307 307 308 308
286 285 284 284 283 283 284 284 285 285 286 287 288 290 291 292 293 293 294 296 297 297 298 298 299 299 299 298 298 297 296 295 295 296 295 296 298 299 300 302 303 304 304 304 304 304 305 306 306 305 305 305 305 306 306 305 305 305 305 305 305 305 305 304 304 304 304 304 304 304 304 304 304 304 304 305 305 305 306 306 307 307 307 307 308
287 285 285 284 284 284 284 284 285 285 285 286 288 289 290 291 292 292 293 295 295 296 296 297 298 298 297 297 296 296 295 294 293 294 295 296 298 299 300 301 302 303 303 303 304 304 305 305 305 305 305 305 305 306 306 306 306 306 305 306 306 306 306 305 304 304 305 305 304 304 304 304 304 305 305 305 306 307 307 308 308 308 308 308 308
287 286 285 285 284 284 284 284 285 285 285 286 287 288 289 290 291 292 293 294 295 295 295 296 296 296 296 296 296 295 295 294 293 293 294 295 297 298 299 300 301 302 302 303 303 304 304 304 304 304 305 305 304 305 306 306 306 306 306 306 307 307 306 306 305 305 305 305 304 304 304 305 305 305 306 306 307 308 308 308 308 309 309 310 310
287 286 285 285 285 284 284 284 284 285 285 286 287 288 289 289 290 291 292 294 295 295 295 295 295 295 295 295 295 295 294 294 294 294 294 295 296 297 298 298 299 300 301 302 302 303 303 304 304 304 305 305 305 305 305 305 306 306 306 307 307 308 307 306 306 306 306 305 304 304 305 306 306 306 306 307 307 308 309 309 310 311 312 313 314
288 287 286 286 285 285 284 284 284 284 285 286 287 288 288 289 290 291 292 293 294 294 294 294 293 293 294 294 294 294 294 294 295 295 295 295 296 297 297 297 298 299 300 301 301 302 303 303 304 305 305 305 305 305 305 305 306 306 306 306 307 308 307 307 307 307 306 305 305 305 306 306 306 306 307 307 308 310 311 312 313 314 315 316 317
288 287 286 286 285 284 284 284 284 284 285 286 287 287 288 289 289 290 291 292 292 293 293 292 292 292 293 293 293 293 293 293 294 295 296 296 296 297 296 297 297 298 299 300 300 301 303 303 304 305 305 304 304 304 304 305 305 305 306 306 306 307 307 307 307 306 305 305 305 306 307 307 306 307 308 309 310 311 312 314 315 316 318 319 319
288 287 286 285 284 284 284 284 284 284 285 286 287 287 288 288 289 290 290 290 291 292 291 291 291 291 292 292 292 293 292 293 293 294 295 296 296 296 297 297 297 298 298 299 300 301 302 303 304 304 304 304 304 303 303 303 304 304 305 305 305 306 306 306 306 306 305 305 305 306 307 306 307 308 309 309 311 313 315 316 317 318 319 320 320
288 287 286 285 284 284 284 284 284 284 285 286 287 288 288 288 289 289 289 289 290 290 290 290 290 291 291 291 292 292 292 292 293 294 294 295 295 296 297 297 297 298 298 299 300 301 302 303 303 303 303 303 303 303 302 302 302 303 303 303 304 305 306 305 305 305 305 305 305 306 306 307 307 308 309 311 312 315 317 318 319 320 321 321 321
288 287 286 285 284 284 285 285 285 285 285 286 287 288 288 288 288 289 289 289 289 289 288 288 289 290 290 291 291 291 290 291 293 294 295 295 295 295 296 296 297 297 298 299 300 301 301 301 302 302 302 302 301 301 301 301 301 301 301 301 303 304 304 304 303 304 304 305 305 306 306 306 307 309 311 312 314 316 318 319 321 322 322 322 322
288 287 285 285 285 286 286 286 286 286 286 287 287 288 289 289 288 288 288 289 289 288 287 288 288 289 289 289 289 289 289 290 292 293 293 293 293 294 294 295 296 296 297 298 299 299 300 300 300 300 300 300 300 300 300 300 300 299 299 300 301 303 303 302 302 303 303 304 305 305 306 307 308 309 312 313 315 317 319 321 322 323 323 323 324
289 287 286 286 287 288 288 287 286 286 287 287 288 289 289 289 289 289 288 288 287 287 287 288 288 288 287 287 287 288 288 289 290 291 291 292 292 292 293 294 294 295 295 296 297 298 298 299 299 299 298 298 298 299 299 299 298 297 296 297 300 301 301 300 300 301 302 304 304 305 305 306 308 310 312 314 316 318 320 322 323 324 324 325 325
289 288 288 288 288 288 288 288 287 287 288 288 288 288 289 289 289 289 289 288 287 287 287 288 289 288 287 287 287 287 288 289 289 290 290 291 291 292 292 293 293 293 294 295 296 296 296 297 297 297 297 297 297 297 297 297 296 295 294 295 298 299 298 298 298 300 301 302 303 304 305 307 309 311 313 315 317 319 321 322 324 325 325 327 328
290 290 290 290 289 289 289 289 289 289 289 288 288 288 288 288 289 289 289 288 288 287 288 288 288 288 287 287 287 287 288 288 288 288 289 290 290 291 292 292 292 292 293 294 294 295 295 295 295 296 295 295 295 295 295 295 294 292 292 293 296 296 296 295 296 298 301 302 302 303 305 308 310 312 314 317 319 321 322 323 325 326 327 328 329
292 291 291 291 290 290 290 289 289 289 289 288 288 288 288 288 288 288 288 288 288 288 288 288 288 287 287 287 287 288 288 287 287 287 288 288 289 290 291 292 292 292 292 293 293 294 294 294 294 294 294 293 293 293 293 292 291 289 289 291 293 293 293 294 295 297 299 300 301 304 306 309 311 313 315 318 320 322 323 325 326 328 329 329 331
293 292 292 291 291 291 290 290 289 289 289 288 288 288 287 287 287 287 287 287 287 287 288 287 287 287 286 287 287 288 288 287 287 287 287 287 288 289 290 290 291 292 292 293 293 293 293 293 293 293 292 291 291 291 290 290 288 287 287 289 289 289 290 292 294 296 299 300 302 304 307 310 312 314 316 319 321 323 324 326 327 329 330 331 333
293 293 292 292 292 291 290 290 290 289 289 289 288 288 287 287 287 287 287 286 286 286 286 286 287 287 287 287 287 287 287 287 286 286 287 287 288 288 289 289 290 291 292 292 293 293 292 292 291 290 289 289 288 288 287 286 285 284 285 286 286 286 288 290 292 295 298 300 302 305 308 310 312 315 318 321 323 324 326 327 328 330 332 334 335
293 293 293 292 292 292 291 290 290 289 289 288 288 288 287 287 286 286 286 286 286 286 286 286 286 286 286 286 287 287 287 287 287 287 287 287 288 288 288 289 290 290 291 292 292 292 291 291 290 288 287 287 286 284 284 282 281 281 282 282 282 283 286 288 291 294 296 298 301 305 307 310 313 317 320 322 323 325 327 329 331 333 335 336 337
294 294 294 293 293 292 291 291 290 289 289 289 288 288 287 287 287 286 286 286 286 285 285 285 286 285 286 286 286 286 286 287 287 287 288 288 288 288 288 288 288 289 290 291 291 290 290 288 287 286 286 285 283 281 280 278 277 278 278 277 278 281 283 286 290 293 295 298 302 305 308 311 315 319 321 322 324 326 328 331 334 335 336 336 337
295 295 294 294 293 293 292 292 291 291 290 289 289 288 288 287 287 286 286 286 285 285 285 285 285 285 285 285 286 286 286 286 287 287 287 287 287 287 287 287 288 289 290 290 290 288 287 284 283 283 283 282 280 278 276 275 275 275 274 273 275 278 281 284 288 291 294 298 302 305 308 312 317 320 322 323 326 328 331 334 336 337 336 337 339
296 295 295 295 294 294 293 293 292 291 291 290 289 289 288 287 287 286 286 286 285 285 285 285 284 284 285 285 285 285 285 285 285 285 286 286 286 286 286 287 288 288 289 288 287 285 283 281 280 280 279 278 277 274 272 271 271 270 269 270 272 275 279 282 286 289 294 298 301 305 309 314 317 320 322 325 327 331 334 336 337 337 338 340 342
296 296 296 295 295 294 293 293 292 291 291 290 289 289 288 287 287 286 286 285 285 285 284 284 284 284 284 284 284 284 284 284 285 285 285 285 285 285 286 286 287 287 286 285 283 282 280 279 278 277 276 275 272 269 268 268 266 264 264 267 269 273 276 280 284 289 294 298 301 306 311 315 317 320 323 326 330 334 337 338 338 338 339 342 344
297 296 296 295 295 294 294 293 292 292 291 290 290 289 288 288 287 287 286 285 285 284 284 284 284 284 284 284 284 284 284 284 285 285 285 285 285 285 285 285 284 283 282 281 280 279 278 276 275 274 273 271 267 264 262 261 259 258 260 263 266 270 274 278 283 288 293 297 302 308 311 314 317 321 325 329 333 336 337 337 338 339 341 344 346
297 297 296 296 295 295 294 294 293 292 292 291 291 290 289 289 288 287 286 286 285 285 285 284 285 285 284 284 284 284 284 285 285 285 285 285 285 284 283 282 281 281 279 278 278 276 275 274 272 271 268 265 261 258 255 253 253 254 257 260 263 267 271 276 281 287 292 298 304 308 311 313 318 323 326 331 335 337 337 337 338 340 343 345 347
298 297 297 296 296 295 295 295 294 294 293 293 292 292 291 290 289 289 288 287 287 286 286 286 286 286 286 285 285 285 285 285 285 285 285 284 284 283 282 281 280 279 278 277 275 274 272 270 268 265 262 258 255 251 248 247 248 251 253 256 260 263 268 274 280 287 293 299 303 306 309 314 320 324 328 332 336 337 337 338 339 342 344 346 347
299 298 298 297 297 296 296 296 295 295 295 294 294 294 293 293 292 291 291 290 289 289 288 288 288 287 287 287 286 286 286 285 285 285 284 284 283 282 281 281 279 278 276 275 274 271 268 266 262 258 254 250 246 243 241 241 243 247 249 252 256 260 265 272 279 286 293 297 299 303 309 315 320 324 329 334 337 338 337 339 341 344 346 347 347
299 299 298 297 297 297 296 296 296 296 295 295 295 295 295 295 294 294 293 293 292 291 290 290 289 289 288 288 288 287 287 286 285 285 284 284 283 282 281 280 279 277 275 273 271 268 265 259 254 250 246 241 237 234 234 236 239 243 246 248 252 257 263 270 277 284 290 292 295 301 308 314 320 326 331 336 338 337 338 340 343 346 347 347 347
299 299 298 297 297 296 296 295 295 295 295 295 296 296 296 296 296 296 295 294 294 293 292 292 291 291 290 290 289 289 288 287 286 286 285 284 283 282 281 279 277 275 273 270 267 263 257 250 244 240 236 231 228 228 230 232 236 238 241 243 248 254 261 267 275 281 284 287 292 300 306 313 321 328 334 336 337 337 338 341 344 346 347 347 347
300 299 298 297 297 296 295 294 294 294 294 294 295 296 296 297 297 297 296 296 295 294 294 293 293 292 292 291 291 290 290 289 288 287 286 285 284 282 280 278 276 273 270 268 263 255 246 238 233 229 225 222 221 223 225 228 231 233 235 239 244 250 258 265 272 276 279 283 291 298 304 313 323 330 335 337 336 336 339 342 344 346 347 347 347
301 301 300 299 298 296 295 294 293 292 292 292 293 294 295 296 297 297 297 296 296 295 295 294 294 293 293 292 292 292 291 290 289 288 287 286 284 282 280 278 274 270 267 262 253 242 232 226 222 218 216 215 216 218 220 223 225 227 230 235 241 248 256 262 266 269 275 282 290 296 304 316 327 334 336 336 336 337 340 343 345 345 346 347 348
303 302 302 301 299 298 296 294 292 291 290 290 291 292 293 294 296 297 297 297 296 295 295 295 294 294 294 293 293 293 292 291 290 289 288 286 285 282 279 276 271 265 259 250 238 226 219 214 211 209 208 209 211 213 215 217 219 221 225 231 237 245 252 256 258 263 272 280 287 297 309 322 331 335 336 336 338 340 342 344 344 345 346 347 349